This demonstration page uses our WeatherBlox Daily Observations layout. Learn more.

Left ArrowRight Arrow

39.51506, -84.39828

Hourly Observations for September 28, 2016

Temp ( °F °C ) Dew Point ( °F °C ) Humidity (%) Winds ( mph kmh ) Pressure ( in mb ) Visibility ( mi km ) Precip ( " mm )
12:15 am 00:15 Clear 56 13.3 50 10 81 81 N N/A 29.88 1012 10 16 N/A
12:35 am 00:35 Clear 55 12.5 49 9.3 81 81 N N/A 29.88 1012 10 16 N/A
12:55 am 00:55 Clear 55 12.5 49 9.4 82 82 N N/A 29.88 1012 10 16 N/A
1:15 am 01:15 Clear 55 12.5 49 9.4 82 82 N N/A 29.88 1012 10 16 N/A
1:35 am 01:35 Clear 55 12.5 49 9.3 81 81 N N/A 29.88 1012 10 16 N/A
1:55 am 01:55 Clear 55 12.5 49 9.5 82 82 N N/A 29.88 1012 10 16 N/A
2:15 am 02:15 Clear 55 12.5 49 9.5 82 82 N N/A 29.88 1012 10 16 N/A
2:35 am 02:35 Clear 55 12.5 49 9.5 82 82 N N/A 29.88 1012 10 16 N/A
2:55 am 02:55 Clear 55 12.5 49 9.5 82 82 N N/A 29.85 1011 10 16 N/A
3:15 am 03:15 Clear 55 12.5 49 9.5 82 82 N N/A 29.85 1011 10 16 N/A
3:35 am 03:35 Clear 55 12.5 49 9.5 82 82 N N/A 29.85 1011 10 16 N/A
3:55 am 03:55 Mostly Cloudy 55 12.5 49 9.3 81 81 N N/A 29.85 1011 10 16 N/A
4:15 am 04:15 Cloudy 59 14.8 49 9.4 70 70 SSE 5 7 29.83 1010 10 16 N/A
4:35 am 04:35 Cloudy 60 15.3 48 8.7 65 65 SSE 6 9 29.83 1010 10 16 N/A
4:55 am 04:55 Mostly Cloudy 60 15.3 47 8.6 65 65 SSE 7 11 29.83 1010 10 16 N/A
5:15 am 05:15 Partly Cloudy 60 15.3 47 8.1 62 62 S 7 11 29.83 1010 10 16 N/A
5:35 am 05:35 Clear 60 15.3 47 8.4 64 64 SSE 7 11 29.83 1010 10 16 N/A
5:55 am 05:55 Partly Cloudy 60 15.3 47 8.2 63 63 S 6 9 29.83 1010 10 16 N/A
6:15 am 06:15 Mostly Cloudy 60 15.3 47 8.1 62 62 S 5 7 29.83 1010 10 16 N/A
6:35 am 06:35 Mostly Cloudy 60 15.3 48 9 66 66 SSE 5 7 29.83 1010 10 16 N/A
6:55 am 06:55 Cloudy 60 15.3 50 10.2 72 72 WNW 5 7 29.83 1010 10 16 N/A
7:15 am 07:15 Cloudy 60 15.3 48 9 66 66 N N/A 29.83 1010 10 16 N/A
7:35 am 07:35 Cloudy 60 15.3 50 9.9 70 70 N 3 6 29.83 1010 10 16 N/A
7:55 am 07:55 Cloudy 60 15.3 51 10.5 73 73 E 6 9 29.83 1010 10 16 N/A
8:15 am 08:15 Cloudy 59 15 51 10.6 75 75 WNW 6 9 29.83 1010 10 16 N/A
8:35 am 08:35 Cloudy with Rain 57 13.9 50 9.9 77 77 N 7 11 29.83 1010 7 11 N/A
8:55 am 08:55 Cloudy with Rain 57 13.8 50 10.2 79 79 N N/A 29.88 1012 5 8 N/A
9:15 am 09:15 Cloudy with Rain 57 13.8 51 10.7 82 82 N N/A 29.88 1012 5 8 N/A
9:35 am 09:35 Cloudy with Heavy Rain 57 13.8 51 10.7 82 82 NNE 5 7 29.88 1012 3 5 N/A
9:55 am 09:55 Cloudy with Light Rain 57 13.8 52 11 83 83 E 7 11 29.83 1010 7 11 N/A
10:15 am 10:15 Cloudy with Light Rain 57 13.8 52 10.9 83 83 E 6 9 29.83 1010 7 11 N/A
10:35 am 10:35 Mostly Cloudy 57 14.1 51 10.8 81 81 E 6 9 29.85 1011 10 16 N/A
10:55 am 10:55 Mostly Cloudy 60 15.3 53 11.6 79 79 ESE 5 7 29.85 1011 10 16 N/A
11:15 am 11:15 Mostly Cloudy 60 15.3 53 11.5 78 78 ESE 7 11 29.85 1011 10 16 N/A
11:35 am 11:35 Partly Cloudy 61 16 53 11.5 75 75 ESE 7 11 29.85 1011 10 16 N/A
11:55 am 11:55 Partly Cloudy 62 16.6 53 11.5 72 72 ESE 7 11 29.85 1011 10 16 N/A
12:15 pm 12:15 Sunny 62 16.6 51 10.8 69 69 E 3 6 29.83 1010 10 16 N/A
12:35 pm 12:35 Sunny 62 16.6 51 10.7 68 68 E 5 7 29.83 1010 10 16 N/A
12:55 pm 12:55 Mostly Cloudy 62 16.6 51 10.7 68 68 N N/A 29.83 1010 10 16 N/A
1:15 pm 13:15 Cloudy with Light Rain 61 16 52 11.1 73 73 N N/A 29.85 1011 10 16 N/A
1:35 pm 13:35 Cloudy with Heavy Rain 60 15.4 53 11.7 79 79 SW 7 11 29.88 1012 4 6 N/A
1:55 pm 13:55 Cloudy with Rain 60 15.3 54 12.1 81 81 N N/A 29.85 1011 3 5 N/A
2:15 pm 14:15 Cloudy with Light Rain 60 15.3 54 12.2 82 82 WNW 3 6 29.88 1012 7 11 N/A
2:35 pm 14:35 Cloudy with Rain 60 15.3 54 12.2 82 82 NW 5 7 29.85 1011 5 8 N/A
2:55 pm 14:55 Cloudy with Rain 60 15.3 54 12.3 82 82 N 3 6 29.85 1011 7 11 N/A
3:15 pm 15:15 Cloudy with Light Rain 60 15.3 54 12.2 82 82 NNE 5 7 29.85 1011 10 16 N/A
3:35 pm 15:35 Cloudy with Rain 60 15.3 54 12.3 82 82 ENE 8 13 29.83 1010 7 11 N/A
3:55 pm 15:55 Cloudy with Light Rain 60 15.3 54 12.3 82 82 E 14 22 29.83 1010 7 11 N/A
4:15 pm 16:15 Cloudy with Light Rain 60 15.3 54 12 81 81 NW 3 6 29.83 1010 10 16 N/A
4:35 pm 16:35 Partly Cloudy 60 15.3 54 12 81 81 N N/A 29.83 1010 10 16 N/A
4:55 pm 16:55 Sunny 61 16.1 54 12 77 77 N N/A 29.85 1011 10 16 N/A
5:15 pm 17:15 Partly Cloudy 62 16.6 53 11.7 73 73 SSE 3 6 29.85 1011 10 16 N/A
5:35 pm 17:35 Mostly Cloudy 62 16.4 54 12.1 76 76 S 6 9 29.88 1012 10 16 N/A
5:55 pm 17:55 Cloudy 61 16 52 11.2 73 73 SSE 6 9 29.88 1012 10 16 N/A
6:15 pm 18:15 Cloudy 60 15.8 53 11.6 76 76 SSE 3 6 29.88 1012 10 16 N/A
6:35 pm 18:35 Cloudy 61 16 53 11.7 76 76 SSE 5 7 29.88 1012 10 16 N/A
6:55 pm 18:55 Cloudy 60 15.8 54 12 78 78 N N/A 29.88 1012 10 16 N/A
7:15 pm 19:15 Cloudy 60 15.6 54 12 79 79 N N/A 29.88 1012 10 16 N/A
7:35 pm 19:35 Cloudy 60 15.3 54 12 81 81 WSW 3 6 29.88 1012 10 16 N/A
7:55 pm 19:55 Cloudy 60 15.3 54 12.2 82 82 WSW 5 7 29.88 1012 10 16 N/A
8:15 pm 20:15 Cloudy 60 15.3 54 12 81 81 N N/A 29.88 1012 10 16 N/A
8:35 pm 20:35 Cloudy 60 15.3 54 12.2 82 82 N N/A 29.91 1013 10 16 N/A
8:55 pm 20:55 Cloudy with Light Rain 60 15.3 54 12 81 81 W 3 6 29.91 1013 10 16 N/A
9:15 pm 21:15 Cloudy 60 15.3 54 12 81 81 N N/A 29.91 1013 10 16 N/A
9:35 pm 21:35 Mostly Cloudy 60 15.3 54 12 81 81 N N/A 29.91 1013 10 16 N/A
9:55 pm 21:55 Partly Cloudy 57 14.1 52 11.1 82 82 N N/A 29.94 1014 10 16 N/A
10:15 pm 22:15 Partly Cloudy 57 13.9 51 10.8 82 82 N N/A 29.97 1015 10 16 N/A
10:35 pm 22:35 Partly Cloudy 57 13.8 51 10.8 82 82 N N/A 29.97 1015 10 16 N/A
10:55 pm 22:55 Partly Cloudy 55 12.7 49 9.7 82 82 WSW 5 7 29.97 1015 10 16 N/A
11:15 pm 23:15 Partly Cloudy 55 12.5 49 9.5 82 82 SSW 5 7 29.97 1015 10 16 N/A
11:35 pm 23:35 Clear 55 12.5 49 9.5 82 82 N N/A 29.97 1015 10 16 N/A
11:55 pm 23:55 Mostly Cloudy 55 12.5 49 9.5 82 82 N N/A 29.97 1015 10 16 N/A

Powered by AerisWeather